Lid_Strength_Index
2 2 1 1 1 1 1 1 1 0 -0 -0 -1 -1 -1 -1 -1 -1 1 -1 2 6 4 3 3 4 5 5 8 7 7 5 6 9 9 8 8 8 8 8 8 9 10 10 10 11 12 4 5 7 4 4 3 3
2 2 2 1 1 1 1 1 1 1 -0 -0 -1 -1 -1 -1 -1 -1 2 -1 -1 4 4 1 1 1 2 3 5 6 6 6 6 8 7 7 8 7 8 10 6 10 7 9 8 9 3 4 4 3 3 3 3 3
2 2 2 1 1 1 1 1 1 1 1 0 0 -0 -1 -1 -1 -1 1 0 1 3 4 3 3 1 0 1 2 7 5 4 5 5 7 7 8 7 8 8 7 6 5 7 7 6 5 4 3 3 2 3 3 2
2 2 2 2 1 1 1 1 2 2 1 1 0 0 -0 -1 -1 -1 1 0 1 3 6 5 0 2 0 0 1 4 5 3 3 4 7 8 8 5 7 6 6 6 5 7 7 6 5 4 3 3 2 2 3 2
2 2 2 2 2 1 1 2 2 2 2 2 1 0 0 1 -0 -0 0 -0 -1 4 7 5 2 1 1 1 1 1 4 5 5 6 7 8 6 6 6 6 7 5 6 7 8 5 5 5 3 2 3 3 2 2
2 2 2 2 2 2 2 2 2 2 2 2 2 1 1 1 1 1 4 0 -1 1 5 8 2 3 2 1 2 2 2 4 4 5 6 5 5 6 8 8 5 4 3 3 5 3 3 3 3 2 3 3 2 2
2 2 2 2 2 2 2 3 3 3 3 3 2 2 2 1 1 4 5 2 -0 0 5 8 8 3 3 3 3 3 2 3 4 5 6 6 6 5 7 9 5 4 3 4 3 4 5 4 4 3 2 2 3 2
2 2 2 2 2 3 3 4 4 4 3 3 3 2 2 2 2 3 1 0 -1 2 4 9 9 7 2 5 6 2 4 4 5 5 5 6 5 6 9 6 5 4 4 4 4 3 3 3 3 3 3 3 3 3
3 3 3 3 3 4 4 4 4 4 4 3 3 3 3 4 5 3 0 1 1 4 8 8 11 12 3 5 5 5 5 8 4 7 6 6 7 9 6 5 5 4 5 5 4 4 4 4 4 3 3 3 4 3
3 3 3 4 4 4 4 4 4 4 4 4 4 6 7 5 1 2 4 6 7 6 7 9 6 9 5 6 8 7 6 8 11 7 5 8 8 5 4 3 4 3 4 4 5 6 5 4 4 4 3 3 3 3
3 3 3 4 4 4 4 4 4 4 4 5 7 7 4 2 4 6 8 9 9 10 8 7 7 8 4 8 8 6 9 9 12 8 8 9 9 6 4 4 3 4 4 4 3 3 3 3 4 4 3 3 3 3
3 3 3 4 4 4 4 4 4 4 3 5 5 4 5 7 9 11 10 9 10 11 7 8 7 6 6 4 7 6 9 9 14 6 8 10 7 5 4 4 4 4 4 4 3 3 3 3 3 3 3 3 3 3
3 3 3 3 3 3 3 3 3 4 4 4 6 7 8 8 13 13 13 12 11 8 7 7 8 6 6 6 8 8 11 11 7 10 10 8 5 5 5 5 5 4 4 4 4 3 3 3 3 3 3 2 3 3
3 3 3 3 3 3 3 3 3 3 3 5 8 12 12 12 11 11 10 9 7 6 6 7 8 8 7 9 9 11 9 8 11 13 11 9 7 5 5 4 5 5 4 4 4 4 4 4 4 3 3 3 3 3
3 3 3 1 2 3 3 3 3 1 2 7 7 12 10 9 7 7 6 7 6 5 5 7 7 7 8 9 8 9 12 13 12 12 10 7 6 5 5 5 5 5 5 5 4 4 4 4 4 4 3 3 3 3
3 4 0 2 2 3 3 1 0 1 2 5 6 8 6 7 7 7 7 7 5 6 5 6 8 9 10 10 11 12 13 14 12 9 7 6 6 5 4 4 4 4 4 4 4 4 4 4 4 4 4 4 4 4
4 0 2 2 2 4 2 0 1 3 4 5 7 5 6 6 7 6 6 6 4 6 9 8 10 12 8 11 12 10 12 10 8 7 6 6 6 5 4 4 5 4 4 4 4 4 4 4 5 5 5 5 5 5
0 -1 1 2 3 1 -0 1 2 4 6 5 7 5 5 4 6 6 5 4 5 6 7 9 7 11 12 13 12 9 8 7 6 6 6 5 5 5 4 5 4 4 4 4 4 4 4 4 5 5 5 4 5 5
3 3 3 4 3 2 2 2 2 6 5 5 4 3 4 4 3 4 4 3 4 4 5 7 10 11 11 8 8 7 7 7 7 6 6 5 5 4 4 4 4 5 5 4 4 4 4 4 4 4 5 5 6 6
4 3 3 3 2 2 4 3 1 4 6 4 3 5 5 4 4 4 4 4 4 5 7 8 8 8 7 6 5 5 5 5 6 7 7 6 6 5 6 4 4 5 5 6 6 6 4 4 3 4 4 5 5 6
3 0 1 0 0 1 2 4 4 4 4 5 4 4 5 4 4 4 5 4 5 6 8 6 5 5 4 4 3 3 4 4 5 5 6 7 5 5 5 6 5 6 6 7 7 7 7 6 4 4 4 4 3 3
-0 2 0 -0 2 2 3 2 4 3 4 4 4 4 6 6 5 5 3 6 7 5 4 4 3 3 4 4 3 3 3 3 3 4 5 5 5 5 5 5 5 6 6 6 6 6 6 5 6 4 4 4 5 4
1 1 1 1 4 5 7 1 4 4 6 5 4 6 6 6 5 3 6 5 5 3 3 3 2 2 3 2 2 3 2 3 3 3 3 3 3 3 3 4 3 4 4 4 3 4 4 7 4 5 4 4 4 5
4 2 4 4 4 7 3 5 3 4 4 5 6 7 6 5 4 5 7 6 4 3 3 2 2 3 2 2 3 3 2 2 2 2 2 3 4 4 3 4 3 2 2 3 3 3 3 3 5 4 4 3 4 4
7 6 6 10 4 5 6 6 5 5 7 6 7 7 6 4 6 7 7 6 4 3 3 3 3 3 3 3 2 2 1 2 2 3 2 2 2 2 2 2 2 2 1 2 3 3 3 3 3 4 4 3 4 3
10 5 8 6 5 6 5 7 7 6 6 7 6 4 4 6 8 9 6 4 4 3 3 3 3 3 3 2 3 2 2 2 2 2 2 1 2 3 3 3 3 3 2 1 2 2 2 2 2 2 3 2 5 2
10 7 4 3 4 4 5 4 4 5 7 7 5 6 6 9 9 6 3 2 3 2 2 2 2 2 3 2 1 2 2 2 2 3 2 2 2 2 2 3 4 3 2 2 2 2 3 2 2 2 2 2 2 2
4 4 7 5 5 4 6 5 6 7 5 4 5 7 8 7 7 4 2 1 1 1 1 1 1 1 1 1 2 2 2 2 2 3 3 3 3 3 3 3 3 7 3 3 3 3 3 3 3 3 3 2 2 1
5 3 4 6 5 5 5 5 6 4 3 4 6 7 6 3 2 2 1 1 1 1 2 2 2 1 1 1 2 2 3 3 4 5 6 6 5 5 4 5 4 3 3 3 5 5 3 3 3 3 3 3 2 2
5 2 5 5 6 7 5 3 4 3 2 3 2 2 2 2 2 0 1 2 1 2 2 1 1 2 2 3 3 3 2 2 3 4 5 5 4 3 3 4 3 2 2 2 2 2 5 3 4 3 3 3 3 4
2 3 5 4 5 4 3 2 1 2 2 2 2 3 4 3 2 2 1 1 1 1 2 2 2 1 2 2 3 3 4 2 1 1 2 2 2 3 3 4 3 2 2 2 2 2 2 3 3 3 3 3 4 4
3 5 5 6 5 3 2 3 3 3 4 4 4 3 3 4 5 3 1 1 1 2 4 2 2 2 1 1 1 2 5 1 1 1 1 2 2 2 3 2 2 2 2 2 2 2 2 3 3 3 4 4 3 3
4 3 4 4 4 5 4 4 4 5 4 4 4 3 4 4 6 3 0 0 1 1 1 1 1 1 1 1 0 0 2 0 3 6 6 7 7 6 3 2 2 2 3 3 3 3 3 3 4 4 4 4 4 4